Flag for Iceland Weather past 2 weeks in Reykjavik, Iceland

Now
45 °F

Partly sunny.


Feels Like: 37 °F
Forecast: N/A
Wind: 18 mph from East

Location: Reykjavik Airport

Current Time: May 30, 2015 at 10:47:35 PM

Latest Report: May 30, 2015 at 10:00 PM


Visibility: N/A

Pressure: 29.59 "Hg

Humidity: 61%

Dew point: 32 °F

Location of ReykjavikLocation

Historic Weather in Reykjavik — Graph

°F

Reykjavik temperature yesterday

Maximum temperature yesterday: 50 °F (at 4:00 PM)
Minimum temperature yesterday: 37 °F (at 1:00 AM)
Average temperature yesterday: 44 °F

Past Weeks' High & Low Weather Summary

 TemperatureHumidityPressure
High50 °F (May 29, 4:00 PM)93% (May 21, 3:00 AM)30.04 "Hg (May 21, 3:00 AM)
Low34 °F (May 21, 3:00 AM)40% (May 29, 6:00 PM)28.74 "Hg (May 16, 12:00 AM)
Average43 °F71%29.58 "Hg
* Reported May 15 9:00 PM — May 30 9:00 PM, Reykjavik, Weather by CustomWeather, © 2015

Note: Actual official high and low records may vary slightly from our data, if they occured in-between our weather recording intervals... More about our weather records

Advertising

Reykjavik weather history for previous 24 hours

 ConditionsComfort  
Time TempWeatherWind HumidityBarometerVisibility
9:00 PM
Sat, May 30
45 °FPartly sunny.16 mph66%29.59 "HgN/A
8:00 PM45 °FSprinkles. Broken clouds.13 mph71%29.59 "HgN/A
7:00 PM46 °FSprinkles. Broken clouds.21 mph71%29.59 "HgN/A
6:00 PM48 °FScattered showers. Broken clouds.26 mph58%29.59 "HgN/A
5:00 PM46 °FScattered showers. Scattered clouds.23 mph71%29.59 "HgN/A
4:00 PM48 °FBroken clouds.29 mph62%29.59 "HgN/A
3:00 PM48 °FBroken clouds.23 mph58%29.59 "HgN/A
2:00 PM48 °FBroken clouds.25 mph54%29.62 "HgN/A
1:00 PM48 °FBroken clouds.25 mph58%29.62 "HgN/A
12:00 PM48 °FPartly sunny.30 mph58%29.62 "HgN/A
11:00 AM48 °FSprinkles. Broken clouds.25 mph58%29.62 "HgN/A
10:00 AM46 °FBroken clouds.26 mph62%29.62 "HgN/A
9:00 AM46 °FBroken clouds.24 mph62%29.62 "HgN/A
8:00 AM45 °FBroken clouds.23 mph66%29.62 "HgN/A
7:00 AM43 °FLight rain. Partly sunny.23 mph76%29.62 "HgN/A
6:00 AM43 °FSprinkles. Partly sunny.17 mph76%29.65 "HgN/A
5:00 AM41 °FSprinkles. Partly sunny.14 mph76%29.65 "HgN/A
4:00 AM43 °FPassing clouds.14 mph71%29.65 "HgN/A
3:00 AM39 °FPassing clouds.6 mph75%29.68 "HgN/A
2:00 AM39 °FClear.7 mph70%29.68 "Hg10 mi
1:00 AM41 °FClear.6 mph66%29.68 "Hg10 mi
12:00 AM45 °FClear.6 mph46%29.68 "Hg10 mi
11:00 PM
Fri, May 29
46 °FScattered clouds.6 mph53%29.68 "HgN/A
10:00 PM48 °FSunny.No wind62%29.68 "Hg10 mi
Weather by CustomWeather, © 2015

See weather overviewHow to use our weather pages